TimeCST,TemperatureF,Dew PointF,Humidity,Sea Level PressureIn,VisibilityMPH,Wind Direction,Wind SpeedMPH,Gust SpeedMPH,PrecipitationIn,Events,Conditions,WindDirDegrees,DateUTC
12:55 AM,55.8,51.8,87,30.10,10.0,SSE,6.9,-,N/A,,Overcast,150,2012-11-19 06:55:00
1:55 AM,53.4,50.9,91,30.09,10.0,SSE,6.9,-,N/A,,Clear,150,2012-11-19 07:55:00
2:55 AM,55.2,52.3,90,30.09,10.0,SSE,5.8,-,N/A,,Overcast,150,2012-11-19 08:55:00
3:55 AM,54.0,52.3,94,30.08,10.0,SE,6.9,-,N/A,,Mostly Cloudy,130,2012-11-19 09:55:00
4:55 AM,53.1,51.3,94,30.08,10.0,SSE,9.2,-,N/A,,Scattered Clouds,160,2012-11-19 10:55:00
5:55 AM,52.3,50.9,95,30.09,10.0,SSE,8.1,-,N/A,,Clear,160,2012-11-19 11:55:00
6:55 AM,50.0,49.8,99,30.10,10.0,SSE,6.9,-,N/A,,Clear,150,2012-11-19 12:55:00
7:55 AM,51.4,51.3,99,30.11,10.0,SSE,6.9,-,N/A,,Clear,160,2012-11-19 13:55:00
8:55 AM,56.7,53.1,88,30.11,10.0,South,11.5,-,N/A,,Clear,170,2012-11-19 14:55:00
9:55 AM,60.8,53.4,77,30.11,10.0,South,11.5,-,N/A,,Clear,190,2012-11-19 15:55:00
10:55 AM,64.2,53.6,68,30.12,10.0,SW,5.8,-,N/A,,Clear,220,2012-11-19 16:55:00
11:55 AM,66.6,53.4,63,30.10,10.0,Variable,4.6,-,N/A,,Clear,0,2012-11-19 17:55:00
12:55 PM,69.1,52.5,55,30.08,10.0,SW,6.9,-,N/A,,Clear,230,2012-11-19 18:55:00
1:55 PM,71.1,52.3,52,30.06,10.0,Variable,5.8,-,N/A,,Clear,0,2012-11-19 19:55:00
2:55 PM,72.7,50.0,45,30.04,10.0,South,4.6,-,N/A,,Clear,180,2012-11-19 20:55:00
3:55 PM,72.7,49.6,44,30.04,10.0,Calm,Calm,-,N/A,,Clear,0,2012-11-19 21:55:00
4:55 PM,70.2,52.2,53,30.06,10.0,Calm,Calm,-,N/A,,Clear,0,2012-11-19 22:55:00
5:55 PM,60.1,49.8,69,30.08,10.0,NNE,4.6,-,N/A,,Clear,30,2012-11-19 23:55:00
6:55 PM,55.6,48.7,78,30.10,10.0,Calm,Calm,-,N/A,,Clear,0,2012-11-20 00:55:00
7:55 PM,51.6,47.3,85,30.12,10.0,NNE,8.1,-,N/A,,Clear,30,2012-11-20 01:55:00
8:55 PM,52.9,48.4,85,30.12,10.0,NE,8.1,-,N/A,,Clear,40,2012-11-20 02:55:00
9:55 PM,52.0,48.6,88,30.12,10.0,NNE,9.2,-,N/A,,Clear,20,2012-11-20 03:55:00
10:55 PM,52.7,48.9,87,30.12,10.0,NE,9.2,-,N/A,,Clear,50,2012-11-20 04:55:00
11:55 PM,50.2,47.8,92,30.11,10.0,NNE,6.9,-,N/A,,Clear,30,2012-11-20 05:55:00